EA8CHC Sevilla ES current weather conditions

sailwx.info

Wind from 055 at 1 knots gusting 5

Air temperature 26.1° C
Dewpoint 11.8° C

Last reported at 2014-Oct-25 12:47 UTC.
Time now 2014-Oct-25 13:32 UTC

Location: N 37°26' W 006°03'.
View on Google Maps.

See reports from other nearby stations

  
Tides and Currents Weather Stations Pressure Air Temp Water Temp Dewpoint Dewpoint Depression Visibility Wind Speed Wind Dir Waves Ship Positions
date/time (UTC)wind fromknots sea level pressurealtimeterstation pressurevisibilityair tempwater tempwave heightnotes
2014-Oct-25 12:47 055 1 gusting 5 26.1
2014-Oct-25 12:42 039 1 gusting 5 25.6
2014-Oct-25 12:37 033 1 gusting 6 25.6
2014-Oct-25 12:32 088 1 gusting 6 25.6
2014-Oct-25 12:27 026 2 gusting 6 25.6
2014-Oct-25 12:22 048 2 gusting 6 25.6
2014-Oct-25 12:17 071 1 gusting 6 25.6
2014-Oct-25 12:12 062 2 gusting 6 25.0
2014-Oct-25 12:07 073 3 gusting 6 25.0
2014-Oct-25 12:02 069 2 gusting 6 25.0
2014-Oct-25 11:57 052 2 gusting 6 25.0
2014-Oct-25 11:52 046 2 gusting 6 24.4
2014-Oct-25 11:47 061 3 gusting 6 24.4
2014-Oct-25 11:42 057 3 gusting 6 24.4
2014-Oct-25 11:37 029 3 gusting 6 24.4
2014-Oct-25 11:32 057 3 gusting 6 24.4
2014-Oct-25 11:27 054 3 gusting 6 23.9
2014-Oct-25 11:22 048 3 gusting 6 23.9
2014-Oct-25 11:17 069 3 gusting 6 23.9
2014-Oct-25 11:12 024 4 gusting 6 23.3
2014-Oct-25 11:07 053 3 gusting 8 23.3
2014-Oct-25 11:02 058 3 gusting 8 23.3
2014-Oct-25 10:57 071 4 gusting 8 23.3
2014-Oct-25 10:52 043 4 gusting 7 23.3
2014-Oct-25 10:47 063 4 gusting 7 23.3
2014-Oct-25 10:37 041 4 gusting 7 22.8
2014-Oct-25 10:32 086 4 gusting 7 22.2
2014-Oct-25 10:27 042 3 gusting 7 22.2
2014-Oct-25 10:22 067 3 gusting 6 21.7
2014-Oct-25 10:17 033 3 gusting 6 21.7
2014-Oct-25 10:12 051 3 gusting 6 21.7
2014-Oct-25 10:07 071 4 gusting 9 21.1
2014-Oct-25 10:02 042 4 gusting 9 21.1
2014-Oct-25 09:57 059 4 gusting 10 21.1
2014-Oct-25 09:52 045 5 gusting 10 20.6
2014-Oct-25 09:47 076 6 gusting 10 20.6
2014-Oct-25 09:42 081 5 gusting 8 20.6
2014-Oct-25 09:37 038 4 gusting 8 20.0
2014-Oct-25 09:32 055 3 gusting 6 20.0
2014-Oct-25 09:27 053 4 gusting 8 19.4
2014-Oct-25 09:22 071 5 gusting 8 19.4
2014-Oct-25 09:17 049 4 gusting 6 19.4
2014-Oct-25 09:12 055 2 gusting 5 18.9
2014-Oct-25 09:07 035 1 gusting 5 18.9
2014-Oct-25 09:02 051 1 gusting 4 18.3
2014-Oct-25 08:57 072 2 gusting 5 18.3
2014-Oct-25 08:52 047 2 gusting 5 18.3
2014-Oct-25 08:47 042 2 gusting 4 18.3
2014-Oct-25 08:42 041 1 gusting 4 17.8
2014-Oct-25 08:37 030 1 gusting 4 17.8
2014-Oct-25 08:32 047 2 gusting 5 17.8
2014-Oct-25 08:27 031 2 gusting 5 17.8
2014-Oct-25 08:22 046 2 gusting 5 17.2
2014-Oct-25 08:17 056 2 gusting 5 17.2
2014-Oct-25 08:12 047 2 gusting 5 17.2
2014-Oct-25 08:07 036 1 gusting 4 17.2
2014-Oct-25 08:02 049 1 gusting 3 17.2
2014-Oct-25 07:57 022 1 gusting 3 16.7
2014-Oct-25 07:52 015 0 gusting 3 16.7
2014-Oct-25 07:47 026 16.7
2014-Oct-25 07:42 027 16.7
2014-Oct-25 07:37 027 16.7
2014-Oct-25 07:32 026 0 gusting 2 16.7
2014-Oct-25 07:27 026 0 gusting 2 16.1
2014-Oct-25 07:22 027 0 gusting 2 16.1
2014-Oct-25 07:17 027 16.1
2014-Oct-25 07:12 015 0 gusting 3 15.6
2014-Oct-25 07:07 009 0 gusting 3 15.6
2014-Oct-25 07:02 009 0 gusting 3 15.6
2014-Oct-25 06:57 005 1 gusting 3 15.6
2014-Oct-25 06:52 355 1 gusting 3 15.6
2014-Oct-25 06:47 009 1 gusting 3 15.6
2014-Oct-25 06:42 317 1 gusting 4 15.6
2014-Oct-25 06:37 311 1 gusting 4 15.6
2014-Oct-25 06:32 329 1 gusting 4 15.6
2014-Oct-25 06:27 329 1 gusting 3 15.6
2014-Oct-25 06:22 320 1 gusting 4 15.6
2014-Oct-25 06:17 313 1 gusting 4 15.6
2014-Oct-25 06:12 336 1 gusting 4 15.6
2014-Oct-25 06:07 338 0 gusting 3 16.1
2014-Oct-25 06:02 310 1 gusting 4 16.1
2014-Oct-25 05:57 337 1 gusting 4 16.1
2014-Oct-25 05:52 355 1 gusting 4 16.1
2014-Oct-25 05:47 321 1 gusting 4 16.1
2014-Oct-25 05:42 325 1 gusting 4 16.1
2014-Oct-25 05:37 335 1 gusting 4 16.1
2014-Oct-25 05:32 16.1
2014-Oct-25 05:27 355 1 gusting 4 16.1
2014-Oct-25 05:22 323 2 gusting 4 16.1
2014-Oct-25 05:17 315 2 gusting 4 16.1
2014-Oct-25 05:12 304 2 gusting 4 16.1
2014-Oct-25 05:07 293 2 gusting 4 16.1
2014-Oct-25 05:02 310 2 gusting 4 16.1
2014-Oct-25 04:57 335 2 gusting 4 16.1
2014-Oct-25 04:52 284 2 gusting 4 16.1
2014-Oct-25 04:47 286 3 gusting 4 15.6
2014-Oct-25 04:42 285 3 gusting 4 15.6
2014-Oct-25 04:37 300 2 gusting 4 15.6
2014-Oct-25 04:32 307 2 gusting 3 15.6
2014-Oct-25 04:27 317 2 gusting 4 16.1
2014-Oct-25 04:22 321 2 gusting 4 16.1
2014-Oct-25 04:17 311 2 gusting 4 16.1
2014-Oct-25 04:12 306 2 gusting 3 16.1
2014-Oct-25 04:07 311 1 gusting 3 16.1
2014-Oct-25 04:02 304 1 gusting 3 16.1
2014-Oct-25 03:57 304 1 gusting 2 16.1
2014-Oct-25 03:52 304 1 gusting 2 16.1
2014-Oct-25 03:47 304 0 gusting 3 16.1
2014-Oct-25 03:42 304 0 gusting 4 15.6
2014-Oct-25 03:37 304 1 gusting 4 15.6
2014-Oct-25 03:32 290 3 gusting 4 15.6
2014-Oct-25 03:27 292 3 gusting 4 15.6
2014-Oct-25 03:22 289 2 gusting 4 15.6
2014-Oct-25 03:17 292 2 gusting 4 16.1
2014-Oct-25 03:12 316 2 gusting 4 16.1
2014-Oct-25 03:07 303 2 gusting 4 16.1
2014-Oct-25 03:02 289 2 gusting 4 16.1
2014-Oct-25 02:57 284 2 gusting 4 16.1
2014-Oct-25 02:52 267 2 gusting 4 16.1
2014-Oct-25 02:47 275 2 gusting 4 16.1
2014-Oct-25 02:42 275 2 gusting 4 16.1
2014-Oct-25 02:37 273 2 gusting 4 16.1
2014-Oct-25 02:32 271 2 gusting 4 16.1
2014-Oct-25 02:27 288 1 gusting 4 16.1
2014-Oct-25 02:22 297 1 gusting 3 16.1
2014-Oct-25 02:17 298 1 gusting 4 16.1
2014-Oct-25 02:12 300 2 gusting 4 16.7
2014-Oct-25 02:07 306 2 gusting 4 16.7
2014-Oct-25 02:02 293 2 gusting 4 16.7
2014-Oct-25 01:57 290 1 gusting 3 16.7
2014-Oct-25 01:52 300 17.2
2014-Oct-25 01:47 301 17.2
2014-Oct-25 01:42 301 0 gusting 3 17.2
2014-Oct-25 01:37 295 1 gusting 2 17.2
2014-Oct-25 01:32 075 0 gusting 2 17.8
2014-Oct-25 01:27 074 0 gusting 2 17.8
2014-Oct-25 01:22 074 1 gusting 2 17.8
2014-Oct-25 01:17 075 1 gusting 2 17.8
2014-Oct-25 01:12 074 0 gusting 2 17.8
2014-Oct-25 01:07 074 17.8
2014-Oct-25 01:02 074 18.3
2014-Oct-25 00:57 075 18.3
2014-Oct-25 00:52 075 0 gusting 2 18.3
2014-Oct-25 00:47 074 18.3
2014-Oct-25 00:42 075 18.9
2014-Oct-25 00:37 074 18.9
2014-Oct-25 00:32 074 18.9
2014-Oct-25 00:27 075 18.9
2014-Oct-25 00:22 075 0 gusting 3 18.9
2014-Oct-25 00:17 075 0 gusting 3 19.4
2014-Oct-25 00:12 075 0 gusting 3 19.4
2014-Oct-25 00:07 076 0 gusting 2 19.4
2014-Oct-25 00:02 035 0 gusting 2 19.4
2014-Oct-24 23:57 029 19.4
2014-Oct-24 23:52 024 20.0
2014-Oct-24 23:47 024 20.0
2014-Oct-24 23:42 024 0 gusting 3 20.0
2014-Oct-24 23:37 024 1 gusting 1 20.0
2014-Oct-24 23:32 348 0 gusting 1 20.6
2014-Oct-24 23:27 326 0 gusting 1 20.6
2014-Oct-24 23:22 323 0 gusting 1 20.6
2014-Oct-24 23:17 317 0 gusting 1 20.6
2014-Oct-24 23:12 317 20.6
2014-Oct-24 23:07 317 20.6
2014-Oct-24 23:02 317 20.6
2014-Oct-24 22:57 317 0 gusting 2 21.1
2014-Oct-24 22:52 317 0 gusting 3 21.1
2014-Oct-24 22:47 317 21.1
2014-Oct-24 22:42 317 0 gusting 3 21.1
2014-Oct-24 22:37 316 1 gusting 3 21.1
2014-Oct-24 22:32 312 1 gusting 3 21.1
2014-Oct-24 22:27 318 1 gusting 3 21.1
2014-Oct-24 22:22 322 2 gusting 3 21.7
2014-Oct-24 22:17 322 1 gusting 3 21.7
2014-Oct-24 22:12 321 0 gusting 3 21.7
2014-Oct-24 22:07 283 0 gusting 5 21.7
2014-Oct-24 22:02 283 2 gusting 5 21.7
2014-Oct-24 21:57 281 2 gusting 5 21.7
2014-Oct-24 21:52 284 3 gusting 4 21.7
2014-Oct-24 21:47 284 3 gusting 4 21.7
2014-Oct-24 21:37 300 2 gusting 4 22.2
2014-Oct-24 21:32 295 2 gusting 4 22.2
2014-Oct-24 21:27 298 2 gusting 3 22.2
2014-Oct-24 21:22 300 2 gusting 3 22.2
2014-Oct-24 21:17 304 2 gusting 3 22.2
2014-Oct-24 21:12 304 1 gusting 3 22.2
2014-Oct-24 21:07 306 1 gusting 3 22.8
2014-Oct-24 21:02 306 1 gusting 3 22.8
2014-Oct-24 20:57 304 22.8
2014-Oct-24 20:52 298 23.3
2014-Oct-24 20:47 298 23.3
2014-Oct-24 20:42 298 23.3
2014-Oct-24 20:37 298 0 gusting 2 23.3
2014-Oct-24 20:32 298 0 gusting 2 23.3
2014-Oct-24 20:27 298 1 gusting 3 23.3
2014-Oct-24 20:22 300 1 gusting 3 23.3
2014-Oct-24 20:17 298 1 gusting 3 23.3
2014-Oct-24 20:12 287 1 gusting 3 23.3
2014-Oct-24 20:07 281 1 gusting 3 23.3
2014-Oct-24 20:02 277 1 gusting 2 23.3
2014-Oct-24 19:57 277 1 gusting 2 23.3
2014-Oct-24 19:52 278 1 gusting 2 23.3
2014-Oct-24 19:47 279 1 gusting 2 23.3
2014-Oct-24 19:42 279 1 gusting 2 23.9
2014-Oct-24 19:37 277 1 gusting 2 23.9
2014-Oct-24 19:32 277 1 gusting 2 23.9
2014-Oct-24 19:27 054 1 gusting 2 24.4
2014-Oct-24 19:22 054 0 gusting 2 24.4
2014-Oct-24 19:17 054 0 gusting 1 25.0
2014-Oct-24 19:12 054 0 gusting 1 25.6
2014-Oct-24 19:07 054 0 gusting 1 25.6
2014-Oct-24 19:02 055 25.6
2014-Oct-24 18:57 054 25.6
2014-Oct-24 18:52 054 25.6
2014-Oct-24 18:47 054 25.6
2014-Oct-24 18:42 054 26.1
2014-Oct-24 18:37 054 0 gusting 2 26.1
2014-Oct-24 18:32 055 0 gusting 3 26.1
2014-Oct-24 18:27 055 0 gusting 3 26.1
2014-Oct-24 18:22 054 1 gusting 3 26.7
2014-Oct-24 18:17 054 0 gusting 2 26.7
2014-Oct-24 18:12 054 26.7
2014-Oct-24 18:07 054 26.7
2014-Oct-24 18:02 054 26.7
2014-Oct-24 17:57 052 27.2
2014-Oct-24 17:52 054 27.2
2014-Oct-24 17:47 054 27.2
2014-Oct-24 17:42 054 27.2
2014-Oct-24 17:37 054 27.8
2014-Oct-24 17:32 061 27.8
2014-Oct-24 17:27 067 27.8
2014-Oct-24 17:22 065 0 gusting 2 27.8
2014-Oct-24 17:17 061 0 gusting 2 27.8
2014-Oct-24 17:12 061 28.3
2014-Oct-24 17:07 074 28.3
2014-Oct-24 17:02 074 28.3
2014-Oct-24 16:57 074 28.3
2014-Oct-24 16:52 074 28.3
2014-Oct-24 16:47 074 28.3
2014-Oct-24 16:42 074 0 gusting 3 28.3
2014-Oct-24 16:37 072 0 gusting 4 28.3
2014-Oct-24 16:32 072 1 gusting 5 28.3
2014-Oct-24 16:27 066 1 gusting 5 28.3
2014-Oct-24 16:22 073 1 gusting 5 28.3
2014-Oct-24 16:17 098 1 gusting 6 28.9
2014-Oct-24 16:12 086 2 gusting 6 28.9
2014-Oct-24 16:07 096 2 gusting 6 28.9
2014-Oct-24 16:02 069 3 gusting 6 28.9
2014-Oct-24 15:57 096 3 gusting 6 28.9
2014-Oct-24 15:52 051 2 gusting 5 28.9
2014-Oct-24 15:47 067 1 gusting 5 28.9
2014-Oct-24 15:42 063 2 gusting 5 28.9
2014-Oct-24 15:37 057 2 gusting 5 28.9
2014-Oct-24 15:32 066 2 gusting 6 28.9
2014-Oct-24 15:27 046 2 gusting 6 28.9
2014-Oct-24 15:22 057 3 gusting 6 28.9
2014-Oct-24 15:17 062 3 gusting 6 28.9
2014-Oct-24 15:12 067 2 gusting 6 28.9
2014-Oct-24 15:07 056 2 gusting 6 28.9
2014-Oct-24 15:02 040 3 gusting 6 28.9
2014-Oct-24 14:57 055 3 gusting 8 28.9
2014-Oct-24 14:52 055 4 gusting 8 28.9
2014-Oct-24 14:47 046 3 gusting 7 28.9
2014-Oct-24 14:17 053 4 gusting 8 28.9
2014-Oct-24 14:12 092 3 gusting 8 28.3
2014-Oct-24 14:07 065 3 gusting 8 28.3
2014-Oct-24 14:02 074 3 gusting 8 28.3
2014-Oct-24 13:57 036 5 gusting 9 28.3
2014-Oct-24 13:52 080 5 gusting 10 28.3
2014-Oct-24 13:47 055 5 gusting 10 28.3
2014-Oct-24 13:42 078 4 gusting 11 28.3
2014-Oct-24 13:37 046 6 gusting 11 28.3
2014-Oct-24 13:32 076 6 gusting 11 27.8
2014-Oct-24 13:27 059 6 gusting 11 27.8
2014-Oct-24 13:22 069 6 gusting 11 27.8
2014-Oct-24 13:17 060 7 gusting 11 27.8
2014-Oct-24 13:12 067 6 gusting 11 27.8
2014-Oct-24 13:07 063 6 gusting 11 27.8
2014-Oct-24 13:02 085 6 gusting 12 27.8
2014-Oct-24 12:57 072 6 gusting 13 27.8
2014-Oct-24 12:52 086 7 gusting 13 27.8
2014-Oct-24 12:47 086 6 gusting 13 27.8
2014-Oct-24 12:42 075 6 gusting 12 27.2
2014-Oct-24 12:37 078 6 gusting 12 27.2
2014-Oct-24 12:32 056 6 gusting 12 27.2
2014-Oct-24 12:27 083 6 gusting 14 27.2
2014-Oct-24 12:22 052 6 gusting 14 27.2
2014-Oct-24 12:17 080 7 gusting 14 26.7
2014-Oct-24 12:12 066 7 gusting 14 26.7
2014-Oct-24 12:07 065 7 gusting 14 26.7
2014-Oct-24 12:02 075 7 gusting 14 26.7
2014-Oct-24 11:57 063 7 gusting 13 26.1
2014-Oct-24 11:52 057 6 gusting 11 26.1
2014-Oct-24 11:47 082 6 gusting 11 26.1
2014-Oct-24 11:42 056 6 gusting 11 26.1
2014-Oct-24 11:37 036 6 gusting 11 25.6
2014-Oct-24 11:32 081 6 gusting 11 25.6
2014-Oct-24 11:27 075 6 gusting 10 25.6
2014-Oct-24 11:22 074 6 gusting 12 25.6
2014-Oct-24 11:17 005 6 gusting 12 25.0
2014-Oct-24 11:12 064 6 gusting 12 25.0
2014-Oct-24 11:07 043 6 gusting 11 25.0
2014-Oct-24 11:02 038 5 gusting 10 24.4
2014-Oct-24 10:57 048 4 gusting 9 24.4
2014-Oct-24 10:52 052 4 gusting 9 24.4
2014-Oct-24 10:47 083 5 gusting 10 24.4
2014-Oct-24 10:42 080 5 gusting 10 23.9
2014-Oct-24 10:37 040 5 gusting 10 23.9
2014-Oct-24 10:32 030 5 gusting 10 23.3
2014-Oct-24 10:27 054 5 gusting 10 23.3
2014-Oct-24 10:22 083 5 gusting 10 23.3
2014-Oct-24 10:17 076 5 gusting 10 22.8
2014-Oct-24 10:12 032 4 gusting 8 22.8
2014-Oct-24 10:07 054 3 gusting 8 22.8
2014-Oct-24 10:02 022 3 gusting 8 22.2
2014-Oct-24 09:57 030 2 gusting 8 22.2
2014-Oct-24 09:52 059 1 gusting 7 21.7
2014-Oct-24 09:47 061 2 gusting 7 21.7
2014-Oct-24 09:42 015 2 gusting 6 21.1
2014-Oct-24 09:37 042 2 gusting 6 21.1
2014-Oct-24 09:32 017 1 gusting 6 20.6
2014-Oct-24 09:27 037 2 gusting 5 20.6
2014-Oct-24 09:22 039 2 gusting 5 20.6
2014-Oct-24 09:17 057 2 gusting 5 20.6
2014-Oct-24 09:12 013 2 gusting 5 20.0
2014-Oct-24 09:07 034 1 gusting 3 20.0
2014-Oct-24 09:02 19.4
2014-Oct-24 08:57 19.4
2014-Oct-24 08:52 348 0 gusting 3 18.9
2014-Oct-24 08:47 321 0 gusting 3 18.9
2014-Oct-24 08:42 325 0 gusting 3 18.9
2014-Oct-24 08:37 355 18.9
2014-Oct-24 08:32 355 18.3
2014-Oct-24 08:27 338 18.3
2014-Oct-24 08:22 338 18.3
2014-Oct-24 08:17 342 18.3
2014-Oct-24 08:12 342 17.8
2014-Oct-24 08:07 342 17.8
2014-Oct-24 08:02 342 0 gusting 4 17.2
2014-Oct-24 07:57 322 0 gusting 4 17.2
2014-Oct-24 07:52 319 1 gusting 4 17.2
2014-Oct-24 07:47 306 1 gusting 4 17.2
2014-Oct-24 07:42 327 1 gusting 4 17.2
2014-Oct-24 07:37 355 1 gusting 4 17.2
2014-Oct-24 07:32 349 1 gusting 3 17.2
2014-Oct-24 07:27 022 1 gusting 5 17.2
2014-Oct-24 07:22 025 1 gusting 5 16.7
2014-Oct-24 07:17 298 2 gusting 5 16.7
2014-Oct-24 07:12 345 1 gusting 4 16.7
2014-Oct-24 07:07 295 1 gusting 4 16.7
2014-Oct-24 07:02 076 1 gusting 4 16.1
2014-Oct-24 06:57 281 1 gusting 4 16.1
2014-Oct-24 06:52 274 1 gusting 4 16.1
2014-Oct-24 06:47 338 1 gusting 3 16.1
2014-Oct-24 06:42 318 0 gusting 3 16.1
2014-Oct-24 06:37 324 0 gusting 3 16.1
2014-Oct-24 06:32 324 0 gusting 3 16.1
2014-Oct-24 06:27 336 0 gusting 3 16.1
2014-Oct-24 06:22 005 0 gusting 3 16.1
2014-Oct-24 06:17 011 0 gusting 2 16.1
2014-Oct-24 06:12 338 0 gusting 2 16.1
2014-Oct-24 06:07 009 16.1
2014-Oct-24 06:02 005 16.1
2014-Oct-24 05:57 005 0 gusting 4 16.1
2014-Oct-24 05:52 005 0 gusting 4 16.1
2014-Oct-24 05:47 299 16.1
2014-Oct-24 05:42 090 16.1
2014-Oct-24 05:37 091 16.1
2014-Oct-24 05:32 090 16.1
2014-Oct-24 05:27 090 0 gusting 3 16.1
2014-Oct-24 05:22 090 16.7
2014-Oct-24 05:17 090 16.7
2014-Oct-24 05:12 091 16.7
2014-Oct-24 05:07 090 16.7
2014-Oct-24 05:02 123 16.7
2014-Oct-24 04:57 135 16.7
2014-Oct-24 04:52 135 0 gusting 3 16.7
2014-Oct-24 04:47 136 0 gusting 3 16.7
2014-Oct-24 04:42 136 0 gusting 3 16.7
2014-Oct-24 04:37 065 16.7
2014-Oct-24 04:32 056 0 gusting 4 16.7
2014-Oct-24 04:27 056 1 gusting 4 17.2
2014-Oct-24 04:22 048 2 gusting 4 17.2
2014-Oct-24 04:17 062 2 gusting 4 17.8
2014-Oct-24 04:12 070 1 gusting 3 17.8
2014-Oct-24 04:07 084 0 gusting 1 17.8
2014-Oct-24 04:02 128 17.8
2014-Oct-24 03:57 128 17.8
2014-Oct-24 03:52 128 17.8
2014-Oct-24 03:47 128 0 gusting 4 17.8
2014-Oct-24 03:42 128 1 gusting 4 17.8
2014-Oct-24 03:37 137 1 gusting 4 17.8
2014-Oct-24 03:32 132 1 gusting 4 17.8
2014-Oct-24 03:27 132 1 gusting 4 17.8
2014-Oct-24 03:22 141 1 gusting 3 17.8
2014-Oct-24 03:17 139 1 gusting 3 17.8
2014-Oct-24 03:12 132 0 gusting 2 17.8
2014-Oct-24 03:07 072 0 gusting 1 17.8
2014-Oct-24 03:02 072 17.8
2014-Oct-24 02:57 072 17.8
2014-Oct-24 02:52 072 17.8
2014-Oct-24 02:47 072 17.8
2014-Oct-24 02:42 072 17.8
2014-Oct-24 02:37 072 17.8
2014-Oct-24 02:32 072 17.8
2014-Oct-24 02:27 072 17.8
2014-Oct-24 02:22 072 17.8
2014-Oct-24 02:17 072 18.3
2014-Oct-24 02:12 072 18.3
2014-Oct-24 02:07 072 18.3
2014-Oct-24 02:02 072 18.3
2014-Oct-24 01:57 071 18.3
2014-Oct-24 01:52 072 18.9
2014-Oct-24 01:47 072 18.9
2014-Oct-24 01:42 072 18.9
2014-Oct-24 01:37 072 18.9
2014-Oct-24 01:32 072 18.9
2014-Oct-24 01:27 071 18.9
2014-Oct-24 01:22 072 19.4
2014-Oct-24 01:17 072 19.4
2014-Oct-24 01:12 071 19.4
2014-Oct-24 01:07 072 19.4
2014-Oct-24 01:02 072 0 gusting 2 19.4
2014-Oct-24 00:57 072 0 gusting 2 19.4
2014-Oct-24 00:52 072 19.4
2014-Oct-24 00:47 072 20.0
2014-Oct-24 00:42 071 20.0
2014-Oct-24 00:37 072 20.0
2014-Oct-24 00:32 072 20.0
2014-Oct-24 00:27 072 20.0
2014-Oct-24 00:22 072 20.0
2014-Oct-24 00:17 072 20.0
2014-Oct-24 00:12 071 20.0
2014-Oct-24 00:07 072 20.0
2014-Oct-24 00:02 072 20.0
2014-Oct-23 23:57 072 20.0
2014-Oct-23 23:52 072 20.0
2014-Oct-23 23:47 072 20.0
2014-Oct-23 23:42 072 20.6
2014-Oct-23 23:37 072 20.6
2014-Oct-23 23:32 072 20.6
2014-Oct-23 23:27 072 20.6
2014-Oct-23 23:22 072 20.6
2014-Oct-23 23:17 072 20.6
2014-Oct-23 23:12 072 21.1
2014-Oct-23 23:07 072 21.1
2014-Oct-23 23:02 072 21.1
2014-Oct-23 22:57 072 21.7
2014-Oct-23 22:52 072 0 gusting 2 21.7
2014-Oct-23 22:47 072 1 gusting 3 21.7
2014-Oct-23 22:42 071 0 gusting 4 21.7
2014-Oct-23 22:37 072 1 gusting 4 21.7
2014-Oct-23 22:32 073 0 gusting 4 21.7
2014-Oct-23 22:27 074 21.7
2014-Oct-23 22:22 074 21.1
2014-Oct-23 22:17 074 21.1
2014-Oct-23 22:12 074 21.7
2014-Oct-23 22:07 074 21.7
2014-Oct-23 22:02 053 21.7
2014-Oct-23 21:57 005 21.7
2014-Oct-23 21:52 005 21.7
2014-Oct-23 21:47 005 21.7
2014-Oct-23 21:42 005 21.7
2014-Oct-23 21:37 005 21.7
2014-Oct-23 21:32 005 21.7
2014-Oct-23 21:27 005 21.7
2014-Oct-23 21:22 005 22.2
2014-Oct-23 21:17 005 22.2
2014-Oct-23 21:12 005 22.2
2014-Oct-23 21:07 014 0 gusting 4 22.2
2014-Oct-23 21:02 346 0 gusting 2 21.7
2014-Oct-23 20:57 346 0 gusting 3 21.7
2014-Oct-23 20:52 346 1 gusting 3 21.7
2014-Oct-23 20:47 321 1 gusting 3 21.7
2014-Oct-23 20:42 312 1 gusting 3 21.7
2014-Oct-23 20:37 321 1 gusting 4 21.7
2014-Oct-23 20:32 323 1 gusting 4 21.7
2014-Oct-23 20:27 315 2 gusting 4 21.7
2014-Oct-23 20:22 329 2 gusting 4 21.7
2014-Oct-23 20:17 306 1 gusting 4 21.7
2014-Oct-23 20:12 322 1 gusting 4 21.7
2014-Oct-23 20:07 315 1 gusting 4 21.7
2014-Oct-23 20:02 315 1 gusting 4 22.2
2014-Oct-23 19:57 321 1 gusting 4 22.2
2014-Oct-23 19:52 328 1 gusting 4 22.2
2014-Oct-23 19:47 313 2 gusting 5 22.2
2014-Oct-23 19:42 333 3 gusting 5 22.8
2014-Oct-23 19:37 309 2 gusting 5 22.8
2014-Oct-23 19:32 292 2 gusting 4 22.8
2014-Oct-23 19:27 277 2 gusting 4 22.8
2014-Oct-23 19:22 309 1 gusting 3 23.3
2014-Oct-23 19:17 317 1 gusting 3 23.3
2014-Oct-23 19:12 319 1 gusting 3 23.3
2014-Oct-23 19:07 328 0 gusting 3 23.9
2014-Oct-23 19:02 321 0 gusting 3 23.9
2014-Oct-23 18:57 330 0 gusting 2 23.9
2014-Oct-23 18:52 323 0 gusting 2 23.9
2014-Oct-23 18:47 302 0 gusting 3 23.9
2014-Oct-23 18:27 304 0 gusting 2 24.4
2014-Oct-23 18:22 305 1 gusting 3 24.4
2014-Oct-23 18:17 309 1 gusting 2 24.4
2014-Oct-23 18:12 333 0 gusting 2 25.0
2014-Oct-23 18:07 321 0 gusting 2 25.0
2014-Oct-23 18:02 323 0 gusting 2 25.0
2014-Oct-23 17:57 323 0 gusting 3 25.6
2014-Oct-23 17:52 323 0 gusting 3 25.6
2014-Oct-23 17:47 325 1 gusting 3 25.6
2014-Oct-23 17:42 338 1 gusting 3 26.1
2014-Oct-23 17:37 073 1 gusting 3 26.1
2014-Oct-23 17:32 073 0 gusting 3 26.7
2014-Oct-23 17:27 073 26.7
2014-Oct-23 17:22 073 26.7
2014-Oct-23 17:17 073 0 gusting 2 27.2
2014-Oct-23 17:12 073 0 gusting 3 27.2
2014-Oct-23 17:07 073 0 gusting 4 27.2
2014-Oct-23 17:02 073 0 gusting 4 27.2
2014-Oct-23 16:57 082 1 gusting 4 27.2
2014-Oct-23 16:52 077 1 gusting 4 27.2
2014-Oct-23 16:47 078 2 gusting 4 27.2
2014-Oct-23 16:42 077 2 gusting 5 27.2
2014-Oct-23 16:37 066 2 gusting 6 27.2
2014-Oct-23 16:32 065 3 gusting 8 27.8
2014-Oct-23 16:27 071 4 gusting 8 27.8
2014-Oct-23 16:22 072 4 gusting 8 27.8
2014-Oct-23 16:17 067 3 gusting 7 27.8
2014-Oct-23 16:12 080 2 gusting 8 27.8
2014-Oct-23 16:07 084 1 gusting 9 27.8
2014-Oct-23 16:02 069 3 gusting 9 27.8
2014-Oct-23 15:57 074 4 gusting 9 27.8
2014-Oct-23 15:52 067 3 gusting 6 27.8
2014-Oct-23 15:47 087 3 gusting 6 27.8
2014-Oct-23 15:42 086 2 gusting 8 27.8
2014-Oct-23 15:37 091 3 gusting 8 27.8
2014-Oct-23 15:32 064 4 gusting 8 27.8
2014-Oct-23 15:27 060 3 gusting 6 27.2
2014-Oct-23 15:22 069 3 gusting 8 27.2
2014-Oct-23 15:17 067 3 gusting 8 27.2
2014-Oct-23 15:12 057 4 gusting 8 27.2
2014-Oct-23 15:07 081 4 gusting 8 27.2
2014-Oct-23 15:02 061 4 gusting 10 27.2
2014-Oct-23 14:57 066 5 gusting 10 27.2
2014-Oct-23 14:52 090 5 gusting 10 27.2
2014-Oct-23 14:47 055 5 gusting 10 27.2
2014-Oct-23 14:42 075 6 gusting 11 27.2
2014-Oct-23 14:37 051 6 gusting 11 27.2
2014-Oct-23 14:32 055 6 gusting 11 27.2
2014-Oct-23 14:27 061 6 gusting 11 27.2
2014-Oct-23 14:22 077 6 gusting 11 27.2
2014-Oct-23 14:17 054 6 gusting 11 26.7
2014-Oct-23 14:12 063 6 gusting 10 26.7
2014-Oct-23 14:07 059 5 gusting 10 27.2
2014-Oct-23 14:02 078 6 gusting 12 26.7
2014-Oct-23 13:57 053 6 gusting 12 26.7
2014-Oct-23 13:52 032 7 gusting 12 26.7
2014-Oct-23 13:47 063 6 gusting 12 26.7
2014-Oct-23 13:42 048 6 gusting 11 26.7
2014-Oct-23 13:37 046 6 gusting 11 26.7
2014-Oct-23 13:32 037 6 gusting 11 26.7
2014-Oct-23 13:27 074 6 gusting 11 26.7
2014-Oct-23 13:22 060 6 gusting 11 26.7
2014-Oct-23 13:17 069 6 gusting 11 26.7
2014-Oct-23 13:12 049 6 gusting 11 26.7
2014-Oct-23 13:07 028 6 gusting 13 26.7
2014-Oct-23 13:02 058 7 gusting 14 26.1